Погода Нижний Новгород

Погода Нижний Новгород : погода сейчас, прогноз погоды и архив. Всё, что Вы хотите узнать о погоде Нижний Новгород!

Хотите узнать прогноз погоды в Нижнем Новгороде? Тогда Вам сюда: Погода в Нижнем Новгороде

Поиск расширенной информации на нашем сайте:

Другие новости

Новости СМИ2

Главная страница сайта

Новости сайта

03.07.2017

Напоминаем, что на нашем специализированном сайте Метеоцентр.Азия вы можете получить высокодетализированные автоматические прогнозы погоды по пунктам России, СНГ и мира в авиационном формате (включающие направление и скорость ветра, видимость, явления погоды, количество и форму облачности, нижнюю и верхнюю границу облачности).

Рекомендуем: Пуллер макси для собак: puller maxi игрушка для собак пуллер макси.

Погода Нижний Новгород - сегодня

Время (UTC), дата Ветер
(°,м/с) 
Видим.   Явления Облачность Т
(°С)
Тd
(°С)
f(%) Тe
(°С)
Pmin
(гПа)
dP
(гПа)
Po
(мм)
O2
(г/м3)
Тmin Tmax R s Состояние
почвы
00 14.05.18 тихо () -0{02}  10 км    ясно 
+11.2 +3.4 59 +11  1023.2  0.3  753  291           
03 14.05.18 тихо () -0{01}  10 км    ясно 
+16.5 +3.2 41 +17  1023.3  0.5  753  286  +10.4        сухая 
06 14.05.18 300 (СЗ) 1-3{03}  10 км    ясно 
+20.5 +3.6 33 +21  1023.2  0.1  754  282           
15 14.05.18 310 (СЗ) 1-2{08}  10 км    3/3 1000 м 
[Sc diur, vesp]
+25.9 +2.5 22 +26  1020.4  -1.3  752  276    +26.5       
03 15.05.18 280 (З) 1-3{03}  10 км    3/0 средняя, верхняя 
[Ac trans|Cc]
+17.9 +6.1 46 +19  1020  -0.4  751  283  +13.3        сухая 
15 15.05.18 270 (З) 2-5{06}  10 км    8/3 1000 м кучево-дожд., средняя, верхняя 
[Cb cap|Ac trans|Ci ing]
+25.9 +2.5 22 +26  1016  -1  748  275    +27.1       
03 16.05.18 310 (СЗ) 1-2{06}  10 км    8/0 верхняя 
[Ci]
+16.5 +12.1 75 +22  1017.3  -0.2  749  282  +15.3        сухая 
15 16.05.18 270 (З) 1-5{06}  10 км    9/3 600 м кучево-дожд., средняя, верхняя 
[Cb cap|Ac cast|Cc]
+23.8 +11.2 45 +27  1015.1  -0.6  748  275    +26.9       
03 17.05.18 тихо () -0{03}  10 км    1/0 средняя 
[Ac cast]
+16.7 +13.1 79 +22  1015.9  0.4  748  281  +13.7        сухая 
06 17.05.18 290 (З) 1-3{03}  10 км    ясно 
+20.6 +10 51 +22  1016.1  0.3  748  279           
15 17.05.18 тихо () -0{04}  10 км    10/0 средняя, верхняя 
[Ac trans|Ci]
+25.1 +9.2 36 +25  1013.6  -1.1  747  274    +25.7       
03 18.05.18 тихо () -0{02}  10 км    10/8 600 м кучево-дожд., средняя, верхняя 
[Cb cap|Ac trans|Ci ing]
+18.1 +13.3 74 +24  1012.2  745  279  +14.2        сухая 
15 18.05.18 220 (ЮЗ) 3-10{10}  10 км  гроза, ливневой дождь  9/8 600 м кучево-дожд., средняя 
[Cb cap|Ac trans]
+24 +12.7 49 +29  1007.2  -0.6  742  272    +26.7  0.0     
03 19.05.18 190 (Ю) 1-3{05}  10 км    4/3 1000 м средняя 
[Sc|Ac trans]
+15.7 +14.1 90 +25  1003.9  -0.7  739  279  +13.4      влажная 
15 19.05.18 250 (З) 2-6{08}  4000 м  слаб. ливневой дождь{гроза}  9/9 600 м кучево-дожд. 
[Cb cap]
+17.2 +12.7 75 +23  1002.9  -0.3  738  277    +20.9  0.0     
03 20.05.18 330 (СЗ) 3-7{10}  10 км  {ливн. осадки}  10/10 1000 м 
[Sc diur, vesp]
+10.2 +9.2 94 +10  1010.6  3.3  744  287  +10.1      влажная 
15 20.05.18 350 (С) 2-5{06}  10 км    9/9 600 м 
[Sc]
+10.9 +5.8 71 +11  1019.5  1.4  750  290    +11.3       
21 20.05.18 тихо () -0{03}  10 км    ясно 
+5.2 +3.5 89 +5  1023.2  0.8  753  297           
00 21.05.18 тихо () -0{01}  10 км    ясно 
+3.5 +3 97 +4  1024.8  1.4  754  299           
03 21.05.18 020 (С) 1-2{02}  10 км    ясно 
+8 +4.6 79 +9  1026.3  1.9  755  295  +3.1        влажная 
06 21.05.18 050 (СВ) 2-4{04}  10 км    ясно 
+12.8 +1.7 47 +13  1027.6  1.5  756  291           
09 21.05.18 350 (С) 2-4{07}  10 км    ясно 
+16 +1.9 39 +17  1027.4  756  288           
12 21.05.18 050 (СВ) 2-6{07}  10 км    ясно 
+18.4 +0.2 29 +19  1027.2  756  285           
15 21.05.18 050 (СВ) 2-4{06}  10 км    ясно 
+18.8 -1.4 25 +20  1027.1  -0.1  756  285    +19.3       
18 21.05.18 050 (СВ) 1-2{06}  10 км    ясно 
+12.8 +2.5 49 +14  1028.5  757  291           
Время (UTC), дата Ветер
(°,м/с) 
Видим.   Явления Облачность Т
(°С)
Тd
(°С)
f(%) Тe
(°С)
Pmin
(гПа)
dP
(гПа)
Po
(мм)
O2
(г/м3)
Тmin Tmax R s Состояние
почвы

Для получения пояснительной информации подведите курсор к названию столбца.

ПОГОДА Нижний Новгород - архив

Всё, что Вы хотите узнать о погоде Нижний Новгород - удобно и подробно!

Выберите нужную дату (начиная с 1 января 2015* года) и нажмите кнопку "Найти".
Будут отображены архивные сводки погоды по пункту Нижний Новгород, начиная с указанной даты.


Отображать данные в формате CSV (для использования в таблицах Excel)


Внимание! Наш архив погоды предназначен исключительно для личного некоммерческого использования в познавательных целях. Если Вам необходимы официальные справки о состоянии погоды (для производственных, юридических, коммерческих и т.п. целей), обращайтесь в органы Росгидромета.

*Примечание: данная дата относится к архиву по метеостанциям СССР (Россия, СНГ, Балтия).
Архив по метеостанциям Зарубежной Европы и Азии (кроме Китая) хранится 10 дней, по другим регионам земного шара (Китай, Африка, Америка, Австралия, Океания) - 1 день.

Нижний Новгород - район местоположения метеостанции


Название, широта, долгота, высота метеостанции:
Нижний Новгород (Мыза) 56.3°ш. 44°д. 157 м над ур. моря [Российская Федерация]

Дополнительная информация

В oтличие oт бoльшинства пoгoдных сайтoв мы публикуем пoдрoбную метеoинфoрмацию в детальнoм прoфессиoнальнoм фoрмате.

Характеристики температуры и влажнoсти вoздуха измеряются на высoте 2 м в тени вдали oт зданий и деревьев.
Скoрoсть ветра измеряется на высoте 10 м (на урoвне рoста челoвека скoрoсть ветра ниже в 1.5-2 раза). Если метеoстанция нахoдится в гoрoде или в лесу, тo скoрoсть ветра занижена на 2-4 м/с пo сравнению с oткрытым местoм. Скoрoсть ветра над акватoриями крупных рек и oзёр, а также на вершинах хoлмoв на 2-5 м/с выше, чем в oбычных услoвиях.
Атмoсфернoе давление в разных тoчках местнoсти мoжет значительнo oтличаться oт давления на метеoстанции, в зависимoсти oт услoвий рельефа (при пoдъёме на 10 м давление пoнижается примернo на 1 мм рт.ст.).